KAGSTXKF

Guest
Details From KAGS - Augusta Rgnl At Bush Fld
To TXKF - Bermuda Intl
Flight Number -
Tags decoded
Created
Modified
Stats Distance 873 nm / 1,617 km
Max Altitude 0 ft / 0 m
Waypoints 2
Social Downloads 0
Likes 0
Share VATSIM

Download

Looking for another format? Having issues loading an existing format? Contact us
Advertisement - Login to hide

Notes

Requested: KAGS TXKF

Route

KAGS TXKF

ID Type Via Altitude Latitude Longitude Leg Dist Tot Dist Heading (true) Name
O KAGS APT - 0 ft / 0 m 33.36968˚ -81.96390˚ - 0 nm - Augusta Rgnl At Bush Fld
O TXKF APT - 0 ft / 0 m 32.36404˚ -64.67868˚ 873 nm 873 nm 89° / 99° Bermuda Intl

Altitude Profile

Advertisement - Login to hide

Weather


0- 5 10 15 20 25 30 35+ Temperature / ° C

Clouds and Precipitation
Forecast for 2018-05-22 12:00 UTC. Updated 5 hours ago

Ground ~20,000 ft ~40,000 ft Winds

KAGS

Details ICAO KAGS (AGS)
Name Augusta Rgnl At Bush Fld
Region United States
Timezone America/New_York (UTC-4.0)
Stats Elevation 144 ft / 44 m (AMSL)
Location 33.369676° -81.963895°
Runways 2
Magnetic Variation 6.752° W

METAR

KAGS 221553Z 22007KT 10SM BKN030 BKN037 OVC080 27/19 A3012 RMK AO2 RAE1456 SLP197 P0000 T02720194

Decode

TAF

TAF AMD KAGS 221459Z 2215/2312 16005KT 5SM -SHRA SCT010 BKN030 OVC060 TEMPO 2215/2217 1 1/2SM SHRA BR BKN010 FM221800 18008KT P6SM VCSH SCT030 BKN050 FM222300 16004KT P6SM OVC100

Decode

Departure Runways

ID Width Length Bearing (true) Bearing (mag) Surface Threshold Offset Overrun Length
08 75 ft / 23 m 5,991 ft / 1,826 m 78.15° 84.90° Asphalt 0 ft / 0 m 0 ft / 0 m
17 150 ft / 46 m 8,021 ft / 2,445 m 168.17° 174.92° Asphalt 0 ft / 0 m 0 ft / 0 m
26 75 ft / 23 m 5,991 ft / 1,826 m 258.16° 264.91° Asphalt 0 ft / 0 m 0 ft / 0 m
35 150 ft / 46 m 8,021 ft / 2,445 m 348.18° 354.93° Asphalt 0 ft / 0 m 0 ft / 0 m

TXKF

Details ICAO TXKF (BDA)
Name Bermuda Intl
Region Bermuda
Timezone Unknown (UTC+0.0)
Stats Elevation 12 ft / 4 m (AMSL)
Location 32.364038° -64.678684°
Runways 1
Magnetic Variation 14.767° W

METAR

TXKF 221555Z 20010KT 9999 FEW030 FEW300 26/18 Q1025

Decode

TAF

TAF TXKF 221135Z 2212/2312 22008KT 9999 FEW030 SCT300

Decode

Destination Runways

ID Width Length Bearing (true) Bearing (mag) Surface Threshold Offset Overrun Length
12 150 ft / 46 m 9,701 ft / 2,957 m 101.50° 116.27° Asphalt 0 ft / 0 m 553 ft / 169 m
30 150 ft / 46 m 9,701 ft / 2,957 m 281.52° 296.29° Asphalt 0 ft / 0 m 207 ft / 63 m

Approach Navaids

Runway Type Ident Frequency Range Bearing (true) Bearing (mag) Slope Elevation
30 Localiser IBDA 109.90 MHz 18 nm / 33 km 281.50° 296.27° - 11 ft / 3 m (AMSL)
30 Glidescope IBDA 109.90 MHz 10 nm / 19 km 281.51° 296.28° 3.00° 11 ft / 3 m (AMSL)